Location: Remedello Sotto
(45.2500°N, 10.3667°E)
Time: 11:36:23
(UTC+00:00)

Cosmos 1943 Rocket - Pass Details

Date: 03 February 2023
Orbit: 811 x 844 km, 71.0° (Epoch: 21 March)

Event Time Altitude Azimuth Distance (km) Brightness Sun altitude
Rises 18:53:18 0° 342° (NNW) 3,414 5.6 -25.7°
Reaches altitude 10° 18:56:40 10° 2° (N) 2,475 4.6 -26.3°
Enters shadow 18:57:44 13° 12° (NNE) 2,255 4.3 -26.5°
